QPF
0.00 0.01 0.11 0.12 0.06 0.10 0.08 0.02 0.02 0.00 0.00 0.00 0.00 0.00 0.00 0.00 0.00 0.00 0.00 0.00 0.00 0.00 0.00 0.00 0.00 0.00 0.00 0.00 0.00 0.00 0.00 0.00 0.00 0.00 0.00 0.00 0.01 0.01 0.01 0.01 0.00 0.00 0.00
0.00 0.00 0.08 0.14 0.16 0.12 0.03 0.00 0.00 0.00 0.00 0.00 0.00 0.00 0.00 0.00 0.00 0.00 0.00 0.00 0.00 0.00 0.00 0.00 0.00 0.00 0.00 0.00 0.00 0.00 0.00 0.00 0.00 0.00 0.01 0.06 0.05 0.08 0.00 0.00 0.00 0.00 0.01
0.00 0.01 0.06 0.18 0.17 0.05 0.01 0.00 0.00 0.00 0.00 0.00 0.00 0.00 0.00 0.00 0.00 0.00 0.00 0.00 0.00 0.00 0.02 0.00 0.00 0.00 0.01 0.02 0.02 0.00 0.00 0.02 0.01 0.00 0.00 0.01 0.01 0.02 0.01 0.00 0.00 0.00 0.01
0.00 0.01 0.02 0.20 0.09 0.01 0.00 0.00 0.00 0.00 0.00 0.00 0.00 0.00 0.00 0.00 0.00 0.00 0.00 0.00 0.00 0.00 0.02 0.04 0.04 0.03 0.06 0.05 0.03 0.01 0.00 0.02 0.00 0.00 0.00 0.00 0.01 0.01 0.00 0.00 0.00 0.00 0.01
0.00 0.00 0.04 0.06 0.02 0.00 0.00 0.00 0.00 0.00 0.00 0.00 0.00 0.00 0.00 0.00 0.00 0.00 0.00 0.00 0.00 0.00 0.00 0.00 0.02 0.07 0.05 0.00 0.00 0.00 0.06 0.01 0.01 0.00 0.00 0.00 0.00 0.00 0.00 0.00 0.00 0.00 0.00
0.00 0.01 0.03 0.01 0.00 0.00 0.00 0.00 0.00 0.00 0.00 0.00 0.00 0.00 0.00 0.00 0.00 0.00 0.00 0.00 0.00 0.00 0.00 0.00 0.00 0.01 0.02 0.00 0.00 0.06 0.08 0.00 0.00 0.00 0.00 0.00 0.00 0.00 0.00 0.00 0.00 0.00 0.00
0.00 0.00 0.00 0.01 0.00 0.00 0.00 0.00 0.00 0.00 0.00 0.00 0.00 0.00 0.00 0.00 0.00 0.00 0.00 0.00 0.00 0.01 0.02 0.00 0.00 0.01 0.00 0.01 0.01 0.02 0.03 0.00 0.00 0.00 0.00 0.00 0.00 0.00 0.00 0.00 0.00 0.00 0.00
0.00 0.00 0.00 0.00 0.00 0.00 0.00 0.00 0.00 0.00 0.00 0.00 0.00 0.00 0.00 0.00 0.00 0.00 0.00 0.00 0.00 0.00 0.00 0.00 0.01 0.00 0.00 0.01 0.01 0.01 0.00 0.00 0.00 0.00 0.00 0.00 0.00 0.04 0.05 0.01 0.00 0.00 0.00
0.00 0.00 0.00 0.00 0.00 0.00 0.00 0.00 0.00 0.00 0.00 0.00 0.00 0.00 0.00 0.00 0.00 0.00 0.00 0.00 0.00 0.00 0.01 0.01 0.02 0.02 0.00 0.00 0.00 0.00 0.00 0.00 0.00 0.00 0.00 0.00 0.01 0.04 0.03 0.00 0.01 0.01 0.00
0.00 0.00 0.00 0.00 0.00 0.00 0.00 0.00 0.00 0.00 0.00 0.00 0.00 0.00 0.00 0.01 0.00 0.01 0.00 0.00 0.00 0.00 0.01 0.03 0.04 0.05 0.02 0.00 0.00 0.01 0.00 0.00 0.00 0.00 0.00 0.00 0.00 0.00 0.00 0.02 0.03 0.04 0.00
0.00 0.00 0.00 0.00 0.00 0.00 0.00 0.00 0.00 0.00 0.00 0.00 0.00 0.00 0.00 0.05 0.07 0.09 0.03 0.00 0.00 0.00 0.00 0.03 0.02 0.03 0.02 0.00 0.00 0.01 0.02 0.00 0.00 0.00 0.00 0.00 0.11 0.04 0.00 0.02 0.06 0.01 0.00
0.00 0.00 0.00 0.00 0.00 0.00 0.00 0.00 0.00 0.00 0.00 0.00 0.00 0.00 0.00 0.00 0.01 0.01 0.00 0.00 0.00 0.00 0.01 0.03 0.02 0.02 0.01 0.00 0.00 0.00 0.00 0.00 0.00 0.00 0.00 0.01 0.06 0.24 0.04 0.00 0.02 0.01 0.00
0.00 0.00 0.00 0.00 0.00 0.00 0.00 0.00 0.00 0.00 0.00 0.00 0.00 0.00 0.00 0.00 0.00 0.00 0.00 0.00 0.00 0.00 0.00 0.00 0.00 0.00 0.00 0.00 0.00 0.00 0.00 0.00 0.00 0.00 0.00 0.00 0.02 0.13 0.18 0.13 0.01 0.02 0.00
0.00 0.00 0.00 0.00 0.00 0.00 0.00 0.00 0.00 0.00 0.00 0.00 0.00 0.00 0.00 0.00 0.00 0.00 0.00 0.00 0.00 0.00 0.00 0.00 0.00 0.00 0.01 0.00 0.00 0.00 0.00 0.00 0.00 0.00 0.00 0.02 0.02 0.04 0.08 0.20 0.07 0.01 0.02
0.00 0.00 0.00 0.00 0.00 0.00 0.00 0.00 0.00 0.00 0.00 0.00 0.00 0.00 0.00 0.00 0.00 0.00 0.00 0.00 0.00 0.00 0.00 0.00 0.00 0.00 0.00 0.00 0.00 0.00 0.00 0.00 0.00 0.00 0.00 0.01 0.01 0.02 0.03 0.06 0.14 0.04 0.01
0.00 0.00 0.00 0.00 0.00 0.00 0.00 0.00 0.00 0.00 0.00 0.00 0.00 0.00 0.00 0.01 0.00 0.00 0.00 0.00 0.01 0.03 0.02 0.00 0.00 0.00 0.00 0.00 0.00 0.00 0.00 0.00 0.00 0.00 0.00 0.00 0.01 0.01 0.03 0.03 0.11 0.07 0.07
0.00 0.00 0.00 0.00 0.00 0.00 0.00 0.00 0.00 0.00 0.00 0.00 0.00 0.00 0.00 0.01 0.02 0.00 0.00 0.00 0.01 0.01 0.01 0.00 0.00 0.00 0.00 0.00 0.00 0.00 0.00 0.00 0.00 0.00 0.00 0.00 0.00 0.01 0.02 0.04 0.10 0.02 0.01
0.00 0.00 0.00 0.00 0.00 0.00 0.00 0.00 0.00 0.00 0.00 0.00 0.00 0.00 0.00 0.00 0.00 0.00 0.00 0.00 0.00 0.00 0.00 0.00 0.00 0.00 0.00 0.00 0.00 0.00 0.00 0.00 0.00 0.00 0.00 0.00 0.00 0.00 0.00 0.02 0.03 0.04 0.03
0.00 0.00 0.00 0.00 0.00 0.00 0.00 0.00 0.00 0.00 0.00 0.00 0.00 0.00 0.00 0.00 0.03 0.11 0.04 0.00 0.00 0.00 0.00 0.00 0.00 0.00 0.00 0.00 0.00 0.00 0.00 0.00 0.00 0.00 0.00 0.00 0.00 0.00 0.00 0.00 0.01 0.02 0.04
0.00 0.00 0.00 0.00 0.00 0.00 0.00 0.00 0.00 0.00 0.00 0.00 0.00 0.01 0.00 0.00 0.05 0.02 0.01 0.00 0.00 0.00 0.00 0.00 0.00 0.00 0.00 0.00 0.00 0.00 0.00 0.00 0.00 0.00 0.00 0.00 0.00 0.00 0.00 0.00 0.00 0.00 0.01
0.00 0.00 0.00 0.00 0.00 0.00 0.00 0.00 0.00 0.00 0.00 0.00 0.00 0.00 0.00 0.00 0.00 0.00 0.00 0.00 0.00 0.00 0.00 0.00 0.00 0.00 0.00 0.00 0.00 0.00 0.00 0.00 0.00 0.00 0.00 0.00 0.00 0.00 0.00 0.00 0.00 0.00 0.00
0.00 0.00 0.00 0.00 0.00 0.00 0.00 0.00 0.00 0.00 0.00 0.00 0.00 0.00 0.00 0.00 0.00 0.00 0.00 0.00 0.00 0.00 0.00 0.00 0.00 0.00 0.00 0.00 0.00 0.00 0.00 0.00 0.00 0.00 0.00 0.00 0.00 0.00 0.00 0.00 0.00 0.00 0.00
0.00 0.00 0.00 0.00 0.00 0.00 0.00 0.00 0.00 0.00 0.00 0.00 0.00 0.00 0.00 0.00 0.00 0.00 0.00 0.00 0.00 0.00 0.00 0.00 0.00 0.00 0.00 0.00 0.00 0.00 0.00 0.00 0.00 0.00 0.00 0.00 0.00 0.00 0.00 0.00 0.00 0.00 0.00
0.00 0.00 0.00 0.00 0.00 0.00 0.00 0.00 0.00 0.00 0.00 0.00 0.00 0.00 0.00 0.00 0.00 0.00 0.00 0.00 0.00 0.00 0.00 0.00 0.00 0.00 0.00 0.00 0.00 0.00 0.00 0.00 0.00 0.00 0.00 0.00 0.00 0.00 0.00 0.00 0.00 0.00 0.00
0.00 0.00 0.00 0.00 0.00 0.00 0.00 0.00 0.00 0.00 0.00 0.00 0.00 0.00 0.00 0.00 0.00 0.00 0.00 0.00 0.00 0.00 0.00 0.00 0.00 0.00 0.00 0.00 0.00 0.00 0.00 0.00 0.00 0.00 0.00 0.00 0.00 0.00 0.00 0.00 0.00 0.00 0.00
0.00 0.00 0.00 0.00 0.00 0.00 0.00 0.00 0.00 0.00 0.00 0.00 0.00 0.00 0.00 0.00 0.00 0.00 0.00 0.00 0.00 0.00 0.00 0.00 0.00 0.00 0.00 0.00 0.00 0.00 0.00 0.00 0.00 0.00 0.00 0.00 0.00 0.00 0.00 0.00 0.00 0.00 0.00
MSLP
1014.72 1014.71 1014.80 1014.83 1015.01 1015.31 1015.51 1015.88 1016.17 1016.21 1016.40 1016.55 1016.69 1016.97 1017.12 1017.07 1017.22 1017.32 1017.40 1017.48 1017.53 1017.52 1017.50 1017.60 1017.76 1017.69 1017.52 1017.56 1017.71 1017.74 1017.79 1017.84 1017.86 1017.92 1018.01 1018.13 1018.32 1018.44 1018.62 1018.76 1018.90 1018.78 1018.84
1014.40 1014.68 1014.98 1015.22 1015.39 1015.70 1015.81 1016.02 1016.29 1016.45 1016.62 1016.85 1017.07 1017.24 1017.32 1017.34 1017.39 1017.50 1017.63 1017.63 1017.66 1017.66 1017.65 1017.82 1017.86 1017.76 1017.75 1017.79 1017.82 1017.86 1017.84 1017.82 1017.84 1017.90 1018.06 1018.22 1018.51 1018.64 1018.72 1018.91 1019.06 1019.07 1019.16
1014.62 1014.86 1015.23 1015.53 1015.67 1015.86 1016.11 1016.28 1016.49 1016.67 1016.91 1017.20 1017.30 1017.43 1017.50 1017.49 1017.52 1017.62 1017.73 1017.79 1017.85 1017.87 1017.96 1017.96 1017.98 1017.95 1017.88 1017.87 1017.83 1017.76 1017.81 1017.89 1017.85 1017.90 1018.18 1018.45 1018.55 1018.70 1018.84 1019.01 1019.18 1019.34 1019.43
1014.64 1015.05 1015.33 1015.63 1015.77 1016.04 1016.23 1016.53 1016.69 1016.94 1017.27 1017.36 1017.40 1017.56 1017.67 1017.69 1017.73 1017.82 1017.94 1018.00 1018.05 1018.08 1018.20 1018.19 1018.10 1018.08 1018.03 1017.93 1017.82 1017.88 1018.03 1018.16 1018.25 1018.17 1018.30 1018.53 1018.39 1018.72 1018.92 1019.14 1019.36 1019.52 1019.68
1014.90 1015.25 1015.56 1015.77 1015.85 1016.17 1016.44 1016.69 1016.98 1017.26 1017.38 1017.40 1017.60 1017.75 1017.84 1017.92 1017.93 1018.04 1018.12 1018.17 1018.21 1018.29 1018.33 1018.29 1018.24 1018.22 1018.02 1017.93 1017.90 1018.09 1018.15 1018.43 1018.52 1018.81 1018.73 1018.75 1018.87 1018.82 1019.06 1019.27 1019.45 1019.63 1019.89
1015.11 1015.43 1015.62 1015.75 1016.04 1016.29 1016.65 1016.90 1017.17 1017.34 1017.46 1017.64 1017.78 1017.90 1018.04 1018.08 1018.14 1018.21 1018.27 1018.30 1018.40 1018.51 1018.52 1018.40 1018.33 1018.29 1018.00 1017.97 1017.97 1018.11 1018.36 1018.62 1018.93 1019.03 1019.30 1019.02 1019.19 1019.18 1019.31 1019.49 1019.60 1019.80 1020.06
1015.33 1015.48 1015.70 1015.86 1016.18 1016.49 1016.81 1017.03 1017.25 1017.45 1017.68 1017.81 1017.93 1018.07 1018.19 1018.23 1018.28 1018.29 1018.35 1018.46 1018.58 1018.59 1018.51 1018.42 1018.48 1018.46 1018.25 1018.23 1018.19 1018.29 1018.46 1018.78 1019.16 1019.10 1019.29 1019.37 1019.43 1019.41 1019.51 1019.66 1019.81 1020.05 1020.21
1015.38 1015.59 1015.75 1015.97 1016.36 1016.65 1016.86 1017.13 1017.41 1017.58 1017.84 1017.99 1018.05 1018.18 1018.25 1018.33 1018.40 1018.43 1018.51 1018.62 1018.64 1018.63 1018.63 1018.55 1018.52 1018.51 1018.45 1018.52 1018.53 1018.63 1018.81 1019.02 1019.34 1019.45 1019.52 1019.50 1019.62 1019.61 1019.72 1019.83 1020.06 1020.34 1020.54
1015.41 1015.70 1015.89 1016.11 1016.48 1016.77 1016.95 1017.30 1017.53 1017.72 1017.93 1018.07 1018.20 1018.27 1018.39 1018.52 1018.59 1018.63 1018.69 1018.74 1018.70 1018.72 1018.77 1018.70 1018.66 1018.57 1018.57 1018.54 1018.64 1018.73 1018.79 1019.08 1019.47 1019.70 1019.66 1019.59 1019.73 1019.78 1019.86 1020.06 1020.22 1020.57 1020.76
1015.70 1015.82 1016.07 1016.29 1016.60 1016.86 1017.12 1017.31 1017.54 1017.73 1017.97 1018.11 1018.23 1018.40 1018.58 1018.60 1018.71 1018.77 1018.84 1018.84 1018.76 1018.82 1018.84 1018.93 1018.87 1018.79 1018.66 1018.62 1018.63 1018.71 1018.93 1019.08 1019.48 1019.74 1019.80 1019.77 1019.79 1019.74 1019.88 1020.16 1020.41 1020.74 1020.95
1016.00 1016.15 1016.23 1016.40 1016.78 1016.99 1017.27 1017.43 1017.54 1017.79 1017.96 1018.09 1018.30 1018.51 1018.71 1018.92 1018.99 1019.01 1018.92 1018.85 1018.78 1018.80 1018.89 1018.94 1018.77 1018.74 1018.68 1018.58 1018.67 1018.66 1018.72 1019.19 1019.43 1019.77 1019.74 1019.79 1019.71 1019.82 1019.94 1020.27 1020.58 1020.76 1021.05
1015.88 1016.17 1016.38 1016.46 1016.82 1017.03 1017.28 1017.49 1017.66 1017.93 1018.06 1018.24 1018.42 1018.67 1018.83 1018.91 1018.99 1018.99 1018.96 1018.97 1018.95 1018.90 1018.90 1018.94 1018.82 1018.74 1018.93 1018.88 1018.85 1018.82 1018.82 1019.16 1019.42 1019.63 1019.69 1019.74 1019.80 1019.90 1019.98 1020.22 1020.54 1020.67 1020.95
1015.48 1015.94 1016.21 1016.32 1016.71 1016.94 1017.18 1017.48 1017.77 1018.02 1018.17 1018.31 1018.50 1018.71 1018.92 1018.99 1019.09 1019.16 1019.26 1019.25 1019.30 1019.18 1019.15 1019.19 1019.17 1019.12 1019.11 1019.06 1018.98 1019.12 1019.16 1019.37 1019.49 1019.61 1019.65 1019.78 1019.94 1020.08 1020.14 1020.34 1020.57 1020.77 1021.05
1015.23 1015.51 1015.89 1016.10 1016.54 1016.78 1017.09 1017.35 1017.67 1018.00 1018.17 1018.38 1018.57 1018.75 1019.00 1019.07 1019.23 1019.32 1019.37 1019.40 1019.29 1019.33 1019.41 1019.47 1019.45 1019.25 1019.06 1019.05 1018.99 1019.08 1019.24 1019.25 1019.38 1019.51 1019.70 1019.76 1019.90 1019.97 1020.13 1020.50 1020.58 1020.74 1020.95
1014.90 1015.22 1015.56 1015.98 1016.30 1016.61 1017.03 1017.29 1017.57 1017.89 1018.06 1018.27 1018.58 1018.77 1018.95 1019.12 1019.25 1019.43 1019.44 1019.36 1019.31 1019.36 1019.36 1019.33 1019.35 1019.27 1019.19 1019.12 1019.12 1019.22 1019.27 1019.39 1019.44 1019.65 1019.82 1019.81 1019.92 1020.07 1020.08 1020.39 1020.62 1020.69 1020.85
1014.56 1014.86 1015.28 1015.72 1015.94 1016.42 1016.83 1017.14 1017.34 1017.67 1017.90 1018.25 1018.49 1018.65 1018.84 1019.00 1019.21 1019.29 1019.46 1019.45 1019.46 1019.44 1019.46 1019.21 1019.30 1019.27 1019.35 1019.36 1019.32 1019.39 1019.27 1019.35 1019.53 1019.72 1019.82 1019.87 1019.90 1019.94 1020.05 1020.20 1020.51 1020.71 1020.94
1014.14 1014.54 1014.98 1015.40 1015.69 1016.26 1016.68 1016.97 1017.24 1017.35 1017.71 1018.06 1018.26 1018.43 1018.53 1018.77 1019.01 1019.19 1019.41 1019.43 1019.29 1019.30 1019.36 1019.28 1019.42 1019.53 1019.61 1019.58 1019.66 1019.37 1019.46 1019.59 1019.66 1019.65 1019.77 1019.91 1019.96 1019.94 1020.01 1020.18 1020.41 1020.70 1020.84
1013.67 1014.13 1014.66 1015.07 1015.59 1016.00 1016.39 1016.67 1016.99 1017.25 1017.49 1017.73 1017.97 1018.11 1018.18 1018.43 1018.72 1018.99 1019.18 1019.22 1019.15 1019.22 1019.21 1019.46 1019.68 1019.92 1020.03 1019.97 1019.85 1019.75 1019.73 1019.70 1019.74 1019.69 1019.74 1019.85 1019.97 1020.07 1020.12 1020.20 1020.32 1020.62 1020.78
1012.99 1013.62 1014.23 1014.73 1015.24 1015.70 1016.03 1016.37 1016.63 1016.97 1017.31 1017.49 1017.67 1017.79 1017.83 1018.10 1018.35 1018.74 1018.92 1018.91 1019.00 1019.24 1019.35 1019.63 1019.97 1020.14 1020.30 1020.32 1020.21 1020.20 1020.08 1020.13 1019.99 1019.84 1019.85 1019.88 1020.02 1020.13 1020.23 1020.23 1020.32 1020.55 1020.70
1012.48 1013.09 1013.70 1014.29 1014.80 1015.35 1015.89 1016.21 1016.47 1016.81 1016.97 1017.11 1017.30 1017.43 1017.49 1017.72 1017.99 1018.43 1018.60 1018.85 1019.06 1019.36 1019.60 1019.70 1019.93 1020.19 1020.42 1020.59 1020.57 1020.63 1020.52 1020.53 1020.48 1020.28 1020.19 1020.06 1020.07 1020.17 1020.32 1020.48 1020.54 1020.63 1020.65
1012.10 1012.65 1013.11 1013.75 1014.18 1014.86 1015.49 1016.05 1016.44 1016.59 1016.76 1016.89 1016.84 1016.87 1017.10 1017.32 1017.59 1017.96 1018.29 1018.68 1019.02 1019.37 1019.50 1019.75 1019.94 1020.25 1020.58 1020.65 1020.76 1020.92 1020.93 1020.82 1020.88 1020.84 1020.68 1020.57 1020.50 1020.54 1020.57 1020.63 1020.65 1020.71 1020.73
1011.15 1011.73 1012.37 1012.76 1013.36 1013.98 1014.62 1015.13 1015.56 1015.91 1016.15 1016.30 1016.32 1016.46 1016.61 1016.92 1017.18 1017.51 1017.86 1018.46 1018.69 1019.02 1019.39 1019.67 1019.98 1020.52 1020.77 1020.81 1021.08 1021.40 1021.44 1021.26 1021.11 1021.26 1021.29 1021.20 1020.98 1020.82 1020.84 1020.92 1020.95 1021.03 1021.11
1010.27 1010.80 1011.29 1011.61 1012.22 1012.98 1013.79 1014.58 1015.23 1015.62 1015.98 1016.24 1016.30 1016.36 1016.35 1016.52 1016.79 1017.13 1017.55 1018.03 1018.27 1018.63 1019.09 1019.50 1019.95 1020.41 1020.70 1020.89 1020.80 1021.07 1021.79 1021.64 1021.64 1021.47 1021.38 1021.49 1021.49 1021.27 1021.21 1021.23 1021.27 1021.33 1021.44
1008.91 1009.72 1010.44 1011.15 1011.73 1012.40 1013.07 1013.73 1014.31 1014.74 1015.24 1015.43 1015.76 1016.10 1016.18 1016.25 1016.46 1016.79 1017.17 1017.64 1017.88 1018.25 1018.77 1019.15 1019.69 1020.02 1020.40 1020.75 1021.01 1020.99 1021.09 1021.33 1021.68 1021.96 1021.74 1021.56 1021.55 1021.53 1021.44 1021.35 1021.32 1021.38 1021.50
1008.09 1008.65 1009.45 1010.16 1010.85 1011.49 1012.16 1012.58 1013.28 1013.87 1014.29 1014.69 1015.18 1015.60 1015.82 1015.97 1016.09 1016.40 1016.84 1017.21 1017.68 1017.94 1018.35 1018.77 1019.38 1019.78 1020.08 1020.36 1020.62 1021.04 1021.36 1021.51 1021.56 1021.69 1021.76 1021.81 1021.74 1021.51 1021.40 1021.39 1021.36 1021.48 1021.51
1007.60 1008.45 1009.01 1009.61 1009.89 1010.46 1011.28 1011.94 1012.42 1013.05 1013.76 1014.39 1014.79 1015.10 1015.38 1015.63 1015.87 1016.03 1016.45 1016.83 1017.26 1017.72 1018.09 1018.45 1019.07 1019.53 1019.80 1020.13 1020.40 1020.62 1020.85 1021.12 1021.37 1021.55 1021.85 1021.94 1021.82 1021.65 1021.53 1021.37 1021.27 1021.21 1021.37
Thickness
5757 5757 5756 5756 5754 5751 5751 5750 5747 5747 5744 5744 5745 5744 5743 5744 5743 5742 5741 5741 5741 5742 5742 5740 5739 5741 5743 5744 5745 5745 5745 5745 5745 5745 5744 5743 5739 5737 5736 5737 5738 5741 5743
5761 5760 5758 5754 5752 5750 5750 5750 5747 5746 5745 5744 5744 5743 5742 5743 5743 5742 5740 5740 5740 5741 5741 5739 5740 5742 5743 5744 5745 5745 5745 5745 5746 5747 5745 5742 5740 5737 5738 5738 5739 5741 5741
5762 5760 5757 5753 5753 5751 5750 5749 5747 5745 5745 5743 5743 5742 5742 5742 5743 5741 5741 5741 5740 5741 5740 5740 5742 5743 5744 5745 5746 5747 5747 5746 5746 5746 5744 5742 5741 5741 5740 5739 5739 5739 5740
5763 5760 5758 5755 5754 5752 5750 5747 5746 5745 5743 5742 5743 5742 5741 5742 5742 5742 5741 5741 5741 5741 5740 5741 5743 5744 5746 5747 5748 5747 5746 5744 5743 5744 5744 5743 5743 5742 5742 5741 5740 5738 5738
5762 5759 5757 5755 5755 5751 5749 5747 5746 5743 5742 5742 5742 5741 5741 5742 5742 5741 5740 5740 5740 5740 5741 5741 5742 5744 5747 5748 5748 5745 5743 5741 5740 5738 5740 5741 5740 5741 5741 5740 5739 5738 5737
5762 5759 5757 5756 5754 5751 5748 5747 5745 5743 5743 5743 5743 5742 5742 5742 5742 5741 5741 5740 5740 5740 5740 5742 5742 5745 5747 5748 5747 5745 5742 5738 5734 5735 5735 5736 5736 5737 5738 5737 5737 5737 5735
5761 5760 5758 5756 5754 5751 5749 5747 5746 5744 5743 5743 5744 5743 5743 5743 5743 5743 5742 5741 5740 5739 5740 5742 5743 5744 5746 5745 5745 5743 5740 5735 5728 5734 5734 5734 5734 5735 5736 5736 5735 5734 5733
5762 5761 5759 5757 5753 5751 5750 5748 5746 5745 5745 5744 5744 5744 5745 5745 5744 5744 5743 5741 5741 5740 5740 5743 5745 5746 5746 5744 5743 5742 5738 5734 5731 5730 5733 5734 5734 5734 5735 5735 5733 5732 5731
5762 5761 5759 5757 5754 5752 5751 5748 5747 5747 5746 5745 5745 5746 5746 5745 5745 5745 5744 5742 5742 5741 5742 5744 5746 5747 5747 5746 5744 5743 5740 5736 5731 5731 5733 5735 5734 5734 5734 5733 5733 5730 5728
5761 5761 5760 5758 5755 5754 5752 5750 5749 5748 5748 5748 5748 5747 5747 5747 5746 5746 5746 5745 5745 5744 5744 5745 5746 5748 5748 5748 5746 5745 5741 5738 5735 5734 5734 5734 5734 5733 5733 5732 5730 5728 5727
5760 5761 5760 5759 5756 5755 5753 5751 5751 5750 5750 5750 5750 5749 5748 5748 5748 5747 5748 5749 5748 5747 5747 5747 5749 5750 5750 5750 5748 5747 5744 5742 5739 5736 5736 5735 5730 5731 5732 5730 5728 5727 5725
5760 5761 5761 5761 5758 5757 5754 5754 5753 5753 5753 5752 5752 5751 5751 5751 5751 5750 5751 5750 5750 5749 5749 5749 5751 5752 5750 5750 5750 5749 5748 5744 5741 5739 5738 5736 5733 5729 5730 5729 5726 5725 5725
5766 5764 5763 5763 5761 5760 5757 5756 5755 5755 5755 5755 5754 5753 5752 5752 5753 5753 5751 5751 5751 5750 5751 5750 5751 5751 5750 5750 5749 5748 5747 5744 5742 5740 5739 5736 5733 5730 5729 5727 5725 5722 5722
5768 5768 5768 5766 5764 5763 5761 5760 5759 5757 5757 5756 5755 5754 5753 5754 5754 5753 5753 5753 5753 5752 5751 5750 5749 5750 5752 5750 5750 5748 5747 5745 5742 5741 5739 5737 5734 5732 5730 5726 5725 5723 5722
5770 5771 5772 5769 5768 5767 5764 5763 5762 5761 5759 5758 5757 5756 5755 5755 5755 5753 5754 5754 5755 5754 5753 5752 5751 5749 5750 5750 5749 5748 5746 5744 5741 5740 5738 5736 5734 5732 5731 5729 5726 5725 5723
5774 5775 5774 5773 5771 5770 5767 5766 5766 5764 5762 5760 5759 5759 5757 5756 5755 5755 5754 5755 5755 5754 5752 5753 5752 5751 5749 5748 5746 5746 5745 5744 5741 5739 5738 5736 5734 5733 5732 5730 5728 5726 5724
5777 5778 5776 5776 5774 5772 5771 5769 5768 5768 5765 5763 5762 5761 5761 5760 5758 5757 5756 5756 5756 5755 5753 5753 5751 5749 5747 5747 5744 5746 5744 5742 5740 5740 5739 5736 5735 5734 5733 5731 5729 5727 5724
5782 5780 5780 5779 5776 5774 5773 5771 5770 5770 5768 5766 5764 5764 5765 5763 5761 5759 5758 5758 5757 5756 5754 5750 5748 5746 5745 5744 5744 5744 5743 5742 5740 5740 5739 5737 5735 5733 5731 5731 5729 5727 5725
5787 5785 5782 5782 5779 5777 5774 5773 5773 5772 5769 5769 5768 5769 5769 5766 5764 5761 5760 5759 5757 5754 5752 5749 5746 5744 5741 5741 5741 5740 5740 5738 5738 5738 5737 5737 5734 5733 5731 5730 5729 5727 5726
5791 5790 5787 5785 5784 5780 5777 5775 5775 5774 5773 5772 5771 5771 5771 5769 5768 5764 5762 5759 5756 5752 5750 5748 5745 5742 5739 5737 5736 5735 5734 5733 5734 5734 5733 5733 5733 5732 5730 5729 5728 5726 5725
5793 5792 5792 5788 5788 5785 5779 5775 5774 5774 5775 5775 5776 5776 5775 5774 5772 5768 5765 5760 5756 5752 5750 5746 5742 5739 5736 5735 5731 5729 5728 5730 5729 5730 5730 5730 5729 5729 5728 5728 5727 5725 5723
5800 5799 5797 5797 5794 5791 5788 5785 5782 5779 5778 5779 5779 5779 5779 5777 5775 5772 5768 5763 5758 5754 5750 5746 5741 5735 5732 5731 5723 5720 5715 5721 5724 5723 5723 5724 5726 5726 5725 5724 5723 5721 5720
5806 5806 5806 5806 5803 5799 5794 5790 5785 5782 5779 5777 5778 5779 5781 5780 5778 5775 5770 5765 5761 5757 5752 5747 5742 5736 5730 5728 5726 5721 5708 5709 5713 5720 5721 5720 5719 5721 5720 5720 5718 5717 5715
5816 5814 5812 5809 5806 5803 5801 5795 5792 5788 5783 5784 5783 5782 5781 5781 5778 5776 5772 5767 5765 5760 5754 5751 5745 5741 5735 5727 5724 5725 5723 5720 5711 5707 5714 5716 5717 5716 5717 5716 5715 5713 5712
5822 5821 5817 5814 5812 5810 5806 5804 5798 5794 5793 5790 5787 5784 5782 5781 5780 5778 5773 5770 5766 5761 5758 5754 5748 5744 5739 5733 5728 5723 5719 5717 5716 5712 5708 5709 5711 5713 5713 5713 5711 5709 5708
5824 5821 5821 5817 5816 5816 5811 5807 5803 5798 5793 5788 5786 5784 5784 5783 5781 5779 5775 5771 5767 5762 5759 5756 5751 5746 5741 5737 5733 5729 5724 5720 5716 5713 5708 5706 5706 5708 5708 5708 5707 5707 5704